{"data":{"norad_id":49155,"epoch":"2026-09-20T02:26:39.039936Z","epoch_age_seconds":75668,"freshness":"FRESH","line1":"1 49155U 21082AB  26263.10184074  .00000535  00000+0  52639-4 0  9992","line2":"2 49155  69.9984 124.2674 0002653 270.4049  89.6806 14.98328881277161","mean_motion":14.98328881,"eccentricity":0.0002653,"inclination_deg":69.9984,"raan_deg":124.2674,"arg_perigee_deg":270.4049,"mean_anomaly_deg":89.6806,"bstar":5.2639e-5,"rev_number":27716,"period_min":96.107070901479,"perigee_km":570.21546426975,"apogee_km":573.90323845378,"semimajor_km":6950.1963513618,"source":"CELESTRAK","updated_at":"2026-09-20T09:00:39.250483Z"}}